Flag for Colombia Weather past 2 weeks in Medellin, Colombia

Now
57 °F

Passing clouds.


Feels Like: 57 °F
Forecast: 58 / 85 °F
Wind: No wind

Location: Rionegro / J. M. Cordova

Current Time: Dec 22, 2014 at 1:08:43 AM

Latest Report: Dec 22, 2014 at 12:00 AM


Visibility: 5 mi

Pressure: 30.31 "Hg

Humidity: 94%

Dew point: 55 °F

Location of MedellinLocation

Historic Weather in Medellin — Graph

°F

Medellin temperature yesterday

Maximum temperature yesterday: 72 °F (at 3:00 PM)
Minimum temperature yesterday: 57 °F (at 6:00 AM)
Average temperature yesterday: 63 °F

Past Weeks' High & Low Weather Summary

 TemperatureHumidityPressure
High73 °F (Dec 12, 1:00 PM)100% (Dec 7, 3:00 AM)30.38 "Hg (Dec 7, 3:00 AM)
Low41 °F (Dec 15, 11:00 PM)47% (Dec 12, 1:00 PM)30.17 "Hg (Dec 8, 5:00 PM)
Average61 °F85%30.27 "Hg
* Reported Midnight between Dec 6 and Dec 7 — Midnight between Dec 21 and Dec 22, Medellin, Weather by CustomWeather, © 2014

Note: Actual official high and low records may vary slightly from our data, if they occured in-between our weather recording intervals... More about our weather records

Advertising

Medellin weather history for previous 24 hours

 ConditionsComfort  
Time TempWeatherWind HumidityBarometerVisibility
12:00 AM
Dec 22
57 °FPassing clouds.No wind94%30.31 "Hg5 mi
11:00 PM
Dec 21
59 °FPassing clouds.No wind94%30.32 "HgN/A
10:00 PM61 °FPassing clouds.5 mph88%30.30 "HgN/A
9:00 PM61 °FPassing clouds.5 mph94%30.29 "HgN/A
8:00 PM61 °FPassing clouds.5 mph94%30.27 "HgN/A
7:00 PM63 °FPassing clouds.3 mph88%30.24 "HgN/A
6:00 PM64 °FPassing clouds.7 mph83%30.21 "HgN/A
5:00 PM66 °FScattered clouds.9 mph73%30.19 "HgN/A
4:00 PM68 °FScattered clouds.9 mph69%30.19 "HgN/A
3:00 PM72 °FScattered clouds.12 mph57%30.20 "HgN/A
2:00 PM70 °FScattered clouds.12 mph60%30.22 "HgN/A
1:00 PM70 °FScattered clouds.No wind57%30.24 "HgN/A
12:00 PM68 °FPartly sunny.9 mph60%30.30 "HgN/A
11:00 AM66 °FPartly sunny.6 mph64%30.32 "HgN/A
10:00 AM64 °FMild.5 mph68%30.33 "HgN/A
9:00 AM61 °FPartly sunny.5 mph83%30.32 "HgN/A
8:00 AM59 °FSnow. Scattered clouds.3 mph88%30.31 "HgN/A
7:00 AM59 °FSnow. Overcast.No wind94%30.29 "HgN/A
6:00 AM57 °FSnow. Passing clouds.No wind94%30.26 "Hg4 mi
5:00 AM59 °FFog.No wind94%30.24 "Hg2 mi
4:00 AM59 °FFog.No wind94%30.23 "Hg2 mi
3:00 AM59 °FFog.No wind94%30.24 "Hg3 mi
2:00 AM59 °FFog.No wind94%30.25 "Hg2 mi
1:00 AM59 °FFog.No wind100%30.28 "Hg2 mi
Weather by CustomWeather, © 2014

See weather overviewHow to use our weather pages